�N����,����,�~����,�C��,���x,�C��,����,���ϕ���,�ő�u�ԕ���,�ő厞����,���˗�,�I�_���x,�n�����x,�ő啗���N��,DTYPE
"19/02/11","00:10",0.0,1.7,82.9,1021.3,279.9,2.0,3.9,303.5,0.00,-0.8,5.7,"00:09:12",1
"19/02/11","00:20",0.0,1.7,83.4,1021.3,298.8,2.6,3.6,316.4,0.00,-0.8,5.7,"00:13:20",1
"19/02/11","00:30",0.0,1.7,83.7,1021.3,314.1,3.0,4.2,323.2,0.00,-0.7,5.7,"00:26:48",1
"19/02/11","00:40",0.0,1.7,83.7,1021.1,318.5,3.0,4.0,316.5,0.00,-0.7,5.9,"00:30:40",1
"19/02/11","00:50",0.0,1.7,83.9,1021.3,328.7,2.1,2.9,324.3,0.00,-0.7,5.5,"00:47:20",1
"19/02/11","01:00",0.0,1.7,84.0,1021.3,330.6,2.6,5.6,325.6,0.00,-0.7,5.7,"00:54:02",1
"19/02/11","01:10",0.0,1.6,84.2,1021.1,315.4,2.8,4.2,322.4,0.00,-0.7,5.7,"01:05:22",1
"19/02/11","01:20",0.0,1.7,84.0,1020.8,306.8,2.6,3.9,341.3,0.00,-0.7,5.5,"01:13:28",1
"19/02/11","01:30",0.0,1.6,84.1,1020.8,319.2,2.8,4.2,324.3,0.00,-0.8,5.4,"01:25:28",1
"19/02/11","01:40",0.0,1.6,84.1,1021.1,319.8,3.0,4.4,325.8,0.00,-0.8,5.7,"01:34:24",1
"19/02/11","01:50",0.0,1.6,84.0,1020.8,323.4,2.6,3.3,325.7,0.00,-0.8,5.5,"01:40:40",1
"19/02/11","02:00",0.0,1.6,84.4,1021.1,320.3,2.7,3.3,324.1,0.00,-0.7,5.5,"01:51:20",1
"19/02/11","02:10",0.0,1.6,84.6,1021.1,317.1,2.7,4.1,331.2,0.00,-0.7,5.7,"02:01:28",1
"19/02/11","02:20",0.0,1.6,84.8,1020.6,322.9,3.2,4.5,332.1,0.00,-0.6,5.2,"02:17:12",1
"19/02/11","02:30",0.0,1.5,84.9,1020.4,315.8,2.1,3.4,314.6,0.00,-0.7,5.5,"02:20:24",1
"19/02/11","02:40",0.0,1.5,85.4,1019.9,300.8,1.3,2.0,298.5,0.00,-0.6,5.5,"02:31:20",1
"19/02/11","02:50",0.0,1.5,85.6,1019.4,313.8,2.1,3.1,323.3,0.00,-0.6,5.5,"02:45:36",1
"19/02/11","03:00",0.0,1.4,86.1,1019.4,314.0,1.7,2.4,328.6,0.00,-0.6,5.3,"02:50:08",1
"19/02/11","03:10",0.0,1.3,86.8,1019.2,280.1,1.3,2.0,297.5,0.00,-0.6,5.4,"03:05:28",1
"19/02/11","03:20",0.0,1.4,87.0,1018.7,283.9,1.6,2.6,301.0,0.00,-0.5,5.4,"03:16:00",1
"19/02/11","03:30",0.0,1.4,87.0,1018.7,267.2,1.1,1.7,284.0,0.00,-0.5,5.5,"03:22:08",1
"19/02/11","03:40",0.0,1.5,86.9,1018.5,239.7,1.1,2.0,234.6,0.00,-0.4,5.3,"03:35:28",1
"19/02/11","03:50",0.0,1.6,86.5,1018.7,238.3,0.8,1.6,244.6,0.00,-0.4,5.5,"03:45:28",1
"19/02/11","04:00",0.0,1.7,85.9,1018.7,308.1,1.3,2.2,330.5,0.00,-0.4,5.5,"03:55:12",1
"19/02/11","04:10",0.0,1.6,86.4,1018.5,326.3,2.1,2.9,341.2,0.00,-0.4,5.4,"04:03:28",1
"19/02/11","04:20",0.0,1.5,87.2,1018.2,320.2,2.3,2.9,317.9,0.00,-0.4,5.5,"04:16:24",1
"19/02/11","04:30",0.0,1.5,87.7,1018.2,311.2,1.8,2.7,322.8,0.00,-0.3,5.4,"04:28:40",1
"19/02/11","04:40",0.0,1.5,88.0,1018.2,312.3,2.1,2.7,317.1,0.00,-0.2,5.4,"04:31:52",1
"19/02/11","04:50",0.0,1.5,87.9,1018.7,313.7,2.1,3.3,320.1,0.00,-0.2,5.5,"04:44:08",1
"19/02/11","05:00",0.0,1.6,88.0,1018.5,290.0,1.5,2.1,299.1,0.00,-0.1,5.4,"04:57:20",1
"19/02/11","05:10",0.0,1.6,87.9,1018.2,313.4,2.5,3.1,323.5,0.00,-0.1,5.4,"05:08:24",1
"19/02/11","05:20",0.0,1.6,87.8,1018.7,305.0,2.1,3.1,320.5,0.00,-0.2,5.5,"05:12:24",1
"19/02/11","05:30",0.0,1.7,87.8,1018.7,304.7,1.7,2.4,325.3,0.00,-0.1,5.5,"05:24:56",1
"19/02/11","05:40",0.0,1.7,87.9,1019.0,308.3,2.0,2.7,304.9,0.00,0.0,5.6,"05:30:32",1
"19/02/11","05:50",0.0,1.7,87.8,1018.5,294.1,1.6,2.5,321.7,0.00,-0.1,5.6,"05:41:52",1
"19/02/11","06:00",0.0,1.8,87.9,1018.5,317.8,2.3,3.2,317.1,0.00,0.1,5.3,"05:53:12",1
"19/02/11","06:10",0.0,1.8,87.4,1018.5,309.7,2.6,4.1,315.1,0.00,0.0,5.4,"06:09:52",1
"19/02/11","06:20",0.0,2.0,86.6,1018.7,312.9,3.0,4.3,322.7,0.00,0.0,5.6,"06:10:16",1
"19/02/11","06:30",0.0,2.0,85.8,1018.7,310.4,2.6,3.4,313.2,0.00,-0.1,5.5,"06:26:56",1
"19/02/11","06:40",0.0,2.0,85.4,1018.5,292.3,1.8,2.7,314.7,0.00,-0.1,5.4,"06:30:40",1
"19/02/11","06:50",0.0,1.9,85.5,1018.7,285.6,2.0,3.9,310.2,0.00,-0.2,5.4,"06:49:36",1
"19/02/11","07:00",0.0,1.9,85.8,1019.2,287.9,2.5,3.9,312.3,0.00,-0.2,5.4,"06:57:20",1
"19/02/11","07:10",0.0,1.9,86.0,1019.2,306.5,2.7,4.1,314.7,0.00,-0.2,5.5,"07:01:28",1
"19/02/11","07:20",0.0,1.9,86.2,1019.4,308.2,3.0,4.2,327.4,0.00,-0.1,5.3,"07:10:48",1
"19/02/11","07:30",0.0,1.9,86.4,1019.2,306.4,2.8,4.5,332.6,0.00,-0.1,5.5,"07:29:56",1
"19/02/11","07:40",0.0,1.8,87.1,1019.2,318.8,3.7,5.4,319.9,0.00,-0.1,5.6,"07:38:02",1
"19/02/11","07:50",0.0,1.7,88.0,1019.2,313.5,3.6,4.0,322.6,0.00,0.0,5.5,"07:49:18",1
"19/02/11","08:00",0.0,1.6,89.0,1018.7,319.7,3.1,3.6,317.5,0.00,0.0,5.4,"07:52:10",1
"19/02/11","08:10",0.0,1.6,89.8,1019.4,296.6,2.1,3.1,326.2,0.00,0.1,5.3,"08:05:02",1
"19/02/11","08:20",0.0,1.6,90.7,1019.7,287.2,2.6,3.7,302.9,0.00,0.3,5.4,"08:13:46",1
"19/02/11","08:30",0.0,1.7,91.4,1019.4,305.0,2.5,3.7,327.2,0.01,0.5,5.6,"08:20:08",1
"19/02/11","08:40",0.0,1.7,92.0,1019.4,290.5,2.2,2.9,310.3,0.02,0.6,5.7,"08:37:12",1
"19/02/11","08:50",0.0,1.8,92.4,1019.2,289.3,2.2,2.7,297.1,0.03,0.7,5.4,"08:47:12",1
"19/02/11","09:00",0.0,2.0,93.3,1019.4,287.1,1.7,2.4,286.9,0.04,1.1,5.5,"08:53:52",1
"19/02/11","09:10",0.2,2.2,93.4,1019.7,286.4,1.6,2.1,299.1,0.05,1.3,5.7,"09:06:08",1
"19/02/11","09:20",0.0,2.2,93.7,1019.7,297.3,2.0,3.2,313.4,0.05,1.3,5.6,"09:11:44",1
"19/02/11","09:30",0.0,2.2,93.6,1019.7,282.6,2.1,2.8,314.0,0.05,1.3,5.8,"09:20:40",1
"19/02/11","09:40",0.0,2.3,94.1,1019.4,277.4,1.7,2.9,279.1,0.06,1.5,5.7,"09:30:32",1
"19/02/11","09:50",0.0,2.3,93.5,1019.2,288.1,1.6,2.6,296.2,0.06,1.4,5.7,"09:44:08",1
"19/02/11","10:00",0.0,2.3,93.6,1019.4,266.2,1.3,2.0,258.3,0.06,1.4,5.7,"09:53:08",1
"19/02/11","10:10",0.0,2.6,93.9,1019.2,294.5,2.1,3.2,321.7,0.07,1.8,5.8,"10:09:44",1
"19/02/11","10:20",0.0,2.6,93.8,1019.4,312.4,3.1,4.2,312.1,0.07,1.7,5.9,"10:13:46",1
"19/02/11","10:30",0.0,2.8,94.0,1019.2,290.3,2.2,2.9,301.6,0.07,2.0,5.9,"10:20:08",1
"19/02/11","10:40",0.0,3.0,93.3,1019.2,270.1,1.8,2.9,305.5,0.07,2.1,6.1,"10:33:32",1
"19/02/11","10:50",0.0,3.0,93.3,1019.4,261.8,1.1,1.9,288.4,0.07,2.1,6.0,"10:40:08",1
"19/02/11","11:00",0.0,3.2,93.1,1019.4,264.7,1.1,1.9,262.7,0.08,2.2,5.9,"10:54:26",1
"19/02/11","11:10",0.0,3.4,93.2,1019.2,270.2,0.5,1.2,297.8,0.06,2.4,6.2,"11:03:18",1
"19/02/11","11:20",0.0,3.5,93.1,1019.4,290.2,1.7,2.7,323.9,0.05,2.5,6.1,"11:19:36",1
"19/02/11","11:30",0.0,3.7,92.8,1019.4,286.2,1.7,2.9,315.6,0.06,2.7,6.3,"11:26:22",1
"19/02/11","11:40",0.0,3.9,92.8,1019.2,295.7,2.1,3.3,323.0,0.07,2.9,6.2,"11:32:46",1
"19/02/11","11:50",0.2,3.8,92.2,1019.2,312.0,1.6,2.5,327.3,0.06,2.7,6.4,"11:49:30",1
"19/02/11","12:00",0.0,3.6,92.1,1019.2,348.0,0.8,1.1,304.4,0.06,2.5,6.3,"11:53:08",1
"19/02/11","12:10",0.0,3.7,92.0,1019.0,312.4,2.3,2.7,318.2,0.08,2.6,6.4,"12:00:40",1
"19/02/11","12:20",0.2,3.6,91.0,1018.7,320.6,2.0,2.7,320.6,0.08,2.3,6.4,"12:13:16",1
"19/02/11","12:30",0.0,3.5,91.2,1018.5,246.0,0.7,1.9,338.9,0.10,2.2,6.5,"12:20:18",1
"19/02/11","12:40",0.0,3.7,90.8,1018.7,246.2,0.7,1.7,252.7,0.09,2.4,6.2,"12:33:44",1
"19/02/11","12:50",0.2,3.5,91.1,1018.5,283.3,0.8,1.6,311.1,0.04,2.2,6.7,"12:42:08",1
"19/02/11","13:00",0.0,3.4,91.0,1017.5,254.7,0.5,1.0,262.1,0.04,2.1,6.5,"12:55:14",1
"19/02/11","13:10",0.0,3.5,91.4,1017.5,284.6,0.6,1.4,320.3,0.03,2.3,6.6,"13:09:36",1
"19/02/11","13:20",0.2,3.3,91.4,1017.3,315.8,0.7,1.4,315.4,0.02,2.1,6.5,"13:14:14",1
"19/02/11","13:30",0.0,3.5,91.9,1017.1,295.2,1.0,1.4,318.5,0.04,2.3,6.7,"13:27:46",1
"19/02/11","13:40",0.0,3.6,92.0,1017.3,309.7,1.3,2.2,327.1,0.03,2.5,6.5,"13:30:10",1
"19/02/11","13:50",0.0,3.5,92.4,1017.1,305.6,1.7,2.5,332.3,0.02,2.4,6.4,"13:42:16",1
"19/02/11","14:00",0.0,3.5,92.8,1017.1,311.1,1.7,2.5,303.8,0.03,2.5,6.7,"13:50:14",1
"19/02/11","14:10",0.0,3.5,92.8,1017.1,303.3,1.2,2.0,322.9,0.02,2.5,6.7,"14:05:22",1
"19/02/11","14:20",0.0,3.6,92.8,1017.1,302.0,1.0,1.4,326.2,0.02,2.6,6.3,"14:13:12",1
"19/02/11","14:30",0.0,3.7,93.0,1017.3,270.1,1.0,1.4,262.1,0.03,2.7,6.4,"14:29:20",1
"19/02/11","14:40",0.0,3.9,93.2,1017.1,243.3,0.8,1.2,233.5,0.04,2.9,6.8,"14:32:16",1
"19/02/11","14:50",0.0,4.1,93.4,1017.1,254.4,1.5,2.2,238.9,0.04,3.2,6.6,"14:43:12",1
"19/02/11","15:00",0.0,4.0,93.1,1017.3,264.4,1.5,2.1,245.9,0.03,3.0,6.7,"14:51:36",1
"19/02/11","15:10",0.0,4.0,92.8,1017.1,275.1,1.3,2.4,314.7,0.03,3.0,6.6,"15:03:36",1
"19/02/11","15:20",0.0,4.2,92.7,1017.5,247.0,0.7,1.2,202.9,0.05,3.2,6.9,"15:11:20",1
"19/02/11","15:30",0.0,4.3,92.8,1017.3,299.9,1.7,2.7,320.0,0.04,3.3,6.6,"15:22:54",1
"19/02/11","15:40",0.0,4.4,92.3,1016.8,259.3,1.0,1.4,257.9,0.04,3.3,6.7,"15:36:54",1
"19/02/11","15:50",0.0,4.5,92.4,1017.3,275.9,1.3,1.8,281.5,0.05,3.4,6.7,"15:43:22",1
"19/02/11","16:00",0.0,4.7,91.5,1017.5,272.3,1.2,1.2,276.2,0.05,3.5,6.7,"15:51:34",1
"19/02/11","16:10",0.0,4.6,90.8,1017.5,295.3,1.7,1.7,299.4,0.03,3.3,6.8,"16:09:30",1
"19/02/11","16:20",0.0,4.5,90.8,1017.8,271.8,1.6,2.4,268.2,0.02,3.2,6.8,"16:17:14",1
"19/02/11","16:30",0.0,4.6,90.7,1017.5,308.8,1.3,3.2,318.2,0.03,3.3,6.9,"16:28:18",1
"19/02/11","16:40",0.0,4.7,90.5,1017.8,315.5,2.0,3.1,326.8,0.03,3.3,7.0,"16:34:16",1
"19/02/11","16:50",0.0,4.7,89.9,1017.8,320.3,1.7,2.9,319.7,0.03,3.2,7.0,"16:40:08",1
"19/02/11","17:00",0.0,4.8,90.0,1018.2,310.8,1.5,2.4,314.8,0.03,3.3,6.7,"16:50:16",1
"19/02/11","17:10",0.0,4.8,90.0,1018.2,285.5,0.6,1.3,318.7,0.02,3.3,6.9,"17:03:52",1
"19/02/11","17:20",0.0,4.8,89.9,1018.0,173.0,0.5,1.2,261.2,0.00,3.3,6.9,"17:11:04",1
"19/02/11","17:30",0.0,4.8,89.8,1018.5,217.4,0.5,1.0,206.6,0.00,3.3,7.0,"17:28:16",1
"19/02/11","17:40",0.0,4.7,89.9,1017.8,202.6,1.0,1.7,161.9,0.00,3.2,7.0,"17:35:52",1
"19/02/11","17:50",0.0,4.8,90.3,1018.2,228.9,0.8,1.7,251.0,0.00,3.4,6.6,"17:42:00",1
"19/02/11","18:00",0.0,4.7,90.5,1018.5,213.2,0.8,2.1,219.4,0.00,3.3,6.8,"17:55:52",1
"19/02/11","18:10",0.0,4.7,90.6,1018.5,216.9,1.2,2.2,159.9,0.00,3.3,7.0,"18:04:56",1
"19/02/11","18:20",0.0,4.6,91.0,1018.5,235.1,1.1,1.8,246.3,0.00,3.3,6.8,"18:15:28",1
"19/02/11","18:30",0.0,4.6,91.3,1018.5,189.1,1.1,2.1,143.5,0.00,3.3,6.7,"18:27:52",1
"19/02/11","18:40",0.0,4.7,91.7,1018.5,198.9,0.8,1.7,132.0,0.00,3.5,6.8,"18:38:08",1
"19/02/11","18:50",0.0,4.7,91.7,1018.7,209.6,0.6,1.7,213.3,0.00,3.5,6.7,"18:49:28",1
"19/02/11","19:00",0.0,4.7,91.8,1019.0,270.8,1.1,2.2,320.1,0.00,3.5,6.8,"18:54:08",1
"19/02/11","19:10",0.0,4.6,91.8,1019.0,250.6,1.1,2.1,209.7,0.00,3.4,6.9,"19:09:52",1
"19/02/11","19:20",0.0,4.6,91.8,1019.2,292.6,1.5,2.9,312.0,0.00,3.4,6.7,"19:13:36",1
"19/02/11","19:30",0.0,4.5,92.0,1019.0,302.5,1.8,2.7,323.4,0.00,3.4,6.7,"19:20:56",1
"19/02/11","19:40",0.0,4.5,92.2,1019.2,307.5,2.1,3.3,316.0,0.00,3.4,6.7,"19:35:36",1
"19/02/11","19:50",0.0,4.4,92.1,1019.2,296.9,1.7,3.5,308.1,0.00,3.3,6.9,"19:40:02",1
"19/02/11","20:00",0.0,4.5,91.9,1019.2,308.9,1.7,3.9,313.6,0.00,3.3,6.7,"19:50:16",1
"19/02/11","20:10",0.0,4.5,91.8,1019.7,322.8,1.3,2.6,319.3,0.00,3.3,6.7,"20:08:16",1
"19/02/11","20:20",0.0,4.4,91.9,1019.7,320.3,1.8,3.1,317.7,0.00,3.2,6.5,"20:15:12",1
"19/02/11","20:30",0.0,4.4,91.8,1019.7,286.5,1.3,2.4,271.2,0.00,3.2,6.5,"20:24:16",1
"19/02/11","20:40",0.0,4.3,91.8,1019.7,319.3,2.2,3.2,336.7,0.00,3.1,6.3,"20:33:52",1
"19/02/11","20:50",0.0,4.2,92.2,1019.7,319.7,2.6,3.9,323.0,0.00,3.1,6.6,"20:44:40",1
"19/02/11","21:00",0.0,4.2,92.3,1019.7,318.0,2.1,3.1,326.7,0.00,3.1,6.5,"20:50:16",1
"19/02/11","21:10",0.0,4.0,92.4,1019.9,310.6,2.0,2.9,331.9,0.00,2.9,6.2,"21:01:20",1
"19/02/11","21:20",0.0,3.8,92.8,1020.1,322.1,2.0,2.6,318.9,0.00,2.8,6.4,"21:12:16",1
"19/02/11","21:30",0.0,3.7,93.3,1019.9,319.5,1.7,2.6,330.0,0.00,2.8,6.3,"21:23:36",1
"19/02/11","21:40",0.0,3.6,93.7,1020.1,308.9,1.8,3.4,319.9,0.00,2.7,6.3,"21:32:16",1
"19/02/11","21:50",0.0,3.7,94.0,1020.1,306.7,1.0,1.9,320.6,0.00,2.9,6.2,"21:40:24",1
"19/02/11","22:00",0.0,3.7,94.1,1020.4,291.4,1.1,1.9,313.8,0.00,2.9,6.4,"21:50:08",1
"19/02/11","22:10",0.0,3.7,94.5,1020.4,267.5,0.6,1.4,312.2,0.00,2.9,6.4,"22:05:44",1
"19/02/11","22:20",0.0,4.0,94.5,1020.6,274.3,1.7,3.5,312.4,0.00,3.2,6.3,"22:14:48",1
"19/02/11","22:30",0.4,4.1,94.1,1020.8,306.0,2.3,4.5,325.9,0.00,3.3,6.2,"22:21:04",1
"19/02/11","22:40",0.0,3.8,94.1,1020.8,302.2,1.7,2.7,308.2,0.00,3.0,6.3,"22:37:10",1
"19/02/11","22:50",0.0,3.7,94.2,1020.8,309.6,2.0,2.8,314.7,0.00,2.9,6.4,"22:43:36",1
"19/02/11","23:00",0.0,3.8,94.5,1020.8,316.3,2.1,3.6,335.2,0.00,3.0,6.2,"22:50:02",1
"19/02/11","23:10",0.0,3.8,94.4,1021.1,314.3,2.7,4.5,318.1,0.00,3.0,6.2,"23:03:52",1
"19/02/11","23:20",0.0,3.7,94.3,1020.8,305.5,2.3,3.6,312.2,0.00,2.9,6.0,"23:14:52",1
"19/02/11","23:30",0.0,3.6,94.2,1020.6,287.2,2.7,4.3,332.8,0.00,2.8,6.1,"23:22:42",1
"19/02/11","23:40",0.0,3.7,94.2,1020.6,291.8,3.0,4.9,325.3,0.00,2.9,6.2,"23:36:52",1
"19/02/11","23:50",0.0,3.8,93.8,1020.6,295.2,3.6,4.7,324.6,0.00,2.9,6.0,"23:40:52",1
"19/02/11","24:00",0.0,3.9,93.5,1020.6,303.0,3.2,4.7,301.5,0.00,3.0,6.1,"23:57:24",1
